GFSSE_con_mlcape_021.txt.gz
CAPE
475 533 286 179 254 208 155 193 218 276 321 323 296 259 220 119 133 122 131 98 83 90 101 88 99 113 75 61 50 48 37 35 25 63 43 254 797 712 452 418 637 739 785
611 664 316 265 322 207 189 260 351 377 341 273 190 108 5 3 1 0 62 40 17 6 1 1 0 0 0 0 0 0 0 0 1 16 27 227 431 729 559 119 92 422 790
732 857 419 335 386 300 307 438 471 417 351 244 89 1 0 0 0 11 3 0 0 0 0 0 0 0 0 0 0 0 0 0 0 0 15 118 106 480 612 582 373 454 762
838 829 513 368 425 429 505 616 601 520 403 234 73 0 0 0 0 0 0 0 0 0 0 0 0 0 0 0 0 0 0 0 0 0 128 221 100 428 568 368 169 385 443
808 772 558 458 512 573 678 760 656 561 388 118 45 0 0 0 0 0 0 0 0 0 0 0 0 0 0 0 0 0 0 0 0 51 64 114 119 543 502 52 195 250 340
729 721 582 577 634 703 836 845 635 487 239 64 32 0 0 0 0 0 0 0 0 0 0 0 0 0 0 0 0 0 0 0 0 12 22 5 189 492 271 432 177 124 117
686 770 755 650 625 798 938 723 574 413 133 61 31 0 0 0 0 0 0 0 0 0 0 0 0 0 0 0 0 0 0 0 0 0 0 0 89 262 221 151 6 26 56
683 874 959 703 801 884 764 680 440 230 59 56 9 0 0 0 0 0 0 0 0 0 0 0 0 0 0 0 0 0 0 0 0 0 0 0 0 24 190 43 0 0 0
827 911 884 920 811 694 694 687 307 141 27 14 0 0 0 0 0 0 0 0 0 0 0 0 0 0 0 0 0 0 0 0 0 0 0 0 0 0 4 0 0 0 0
783 780 739 766 797 802 782 570 251 66 4 0 0 0 0 0 0 0 0 0 0 0 0 0 0 0 0 0 0 0 0 0 0 0 0 0 0 0 0 0 0 0 0
656 605 648 676 718 653 565 407 71 0 0 27 29 4 2 1 26 36 2 8 0 0 0 0 0 0 0 0 0 0 0 0 0 0 0 0 0 0 0 0 0 0 0
650 656 658 670 552 270 137 134 38 41 46 85 115 126 47 53 62 51 41 7 0 0 0 0 0 0 0 0 0 0 0 0 0 0 0 0 0 0 0 0 0 0 0
521 531 478 351 118 12 7 3 0 5 43 84 138 176 169 178 210 210 90 0 0 0 0 0 0 0 0 0 0 0 0 0 0 0 0 0 0 0 0 0 0 0 0
181 220 68 11 0 0 0 0 0 32 79 221 337 351 352 218 90 48 0 0 0 0 0 0 0 0 0 0 0 0 0 0 0 0 0 0 0 0 0 0 0 0 0
0 0 0 0 0 0 0 0 13 53 184 252 327 234 80 0 0 0 0 0 0 0 0 0 0 0 0 0 0 0 0 0 0 0 0 0 0 0 0 0 0 0 0
0 0 0 0 0 0 1 0 2 23 39 61 100 49 3 0 0 0 0 0 0 0 0 0 0 0 0 0 0 0 0 0 0 0 0 0 0 0 0 0 0 0 0
0 0 0 0 0 0 0 1 3 0 0 0 0 0 0 0 0 0 0 0 0 0 0 0 0 0 0 0 0 0 0 0 0 0 0 0 0 0 0 0 0 0 0
62 70 4 0 0 0 2 19 19 0 0 0 0 0 0 0 0 0 0 0 0 0 0 0 0 0 0 0 0 0 0 0 0 0 0 0 0 0 0 0 0 0 0
156 52 0 2 1 0 0 0 0 0 0 0 0 0 0 0 0 0 0 0 0 0 0 0 0 0 0 0 0 0 0 0 0 0 0 0 0 0 0 0 0 0 0
51 9 3 0 0 6 12 0 0 0 0 0 0 0 0 0 0 0 0 0 0 0 0 0 0 0 0 0 0 0 0 0 0 0 0 0 0 0 0 0 0 0 0
15 10 7 0 0 0 0 0 0 0 0 0 0 0 0 0 0 0 0 0 0 0 0 0 0 0 0 0 0 0 0 0 0 0 0 0 0 0 0 0 0 0 0
75 46 13 9 0 0 0 0 0 0 0 0 0 0 0 0 0 0 0 0 0 0 0 0 0 0 0 0 0 0 0 0 0 0 0 0 0 0 0 0 0 0 0
9 8 0 0 0 0 0 0 0 0 0 0 0 0 0 0 0 0 0 0 0 0 0 0 0 0 0 0 0 0 0 0 0 0 0 0 0 0 1 2 0 0 0
0 0 0 0 0 0 0 0 0 0 0 0 0 0 0 0 0 0 0 0 0 0 0 0 0 0 0 0 0 0 0 0 0 0 0 1 1 0 1 0 0 0 1
0 0 0 0 0 0 0 0 0 0 0 0 0 0 0 0 0 0 0 0 0 0 0 0 0 0 0 0 0 0 0 0 1 16 2 0 0 2 6 0 0 0 2
0 0 0 0 0 0 0 0 0 0 0 0 0 0 0 0 0 0 0 0 0 0 0 0 0 0 0 0 0 0 0 0 0 5 9 7 1 0 0 1 0 0 0

GFSSE_con_mlcape_024.txt.gz
CAPE
363 280 178 135 190 149 125 132 208 241 293 291 302 245 186 135 93 40 24 43 59 68 55 29 4 0 0 0 0 0 0 0 0 5 207 492 719 787 428 88 161 450 768
493 307 208 217 238 226 231 274 303 336 344 305 236 122 32 1 0 26 12 9 0 0 0 0 0 0 0 0 0 0 0 0 0 0 23 394 374 647 634 292 233 519 959
585 389 250 247 266 295 364 386 417 411 349 220 135 34 0 0 0 0 0 0 0 0 0 0 0 0 0 0 0 0 0 0 0 24 46 102 320 627 473 97 148 462 529
748 533 412 248 336 444 491 488 502 451 273 152 37 0 0 0 0 0 0 0 0 0 0 0 0 0 0 0 0 0 0 0 21 44 134 169 272 435 238 284 74 231 274
857 732 588 310 370 452 525 599 562 402 194 111 0 0 0 0 0 0 0 0 0 0 0 0 0 0 0 0 0 0 0 0 6 23 53 58 92 220 420 126 186 132 140
928 886 510 448 441 495 676 684 611 363 186 110 47 0 0 0 0 0 0 0 0 0 0 0 0 0 0 0 0 0 0 0 0 0 0 25 87 279 192 0 0 0 50
570 852 681 492 423 580 733 806 554 300 182 184 67 0 0 0 0 0 0 0 0 0 0 0 0 0 0 0 0 0 0 0 0 0 0 0 0 177 172 0 0 0 0
990 923 855 535 517 637 964 706 498 272 219 130 6 0 0 0 0 0 0 0 0 0 0 0 0 0 0 0 0 0 0 0 0 0 0 0 0 0 0 0 0 0 0
1014 1047 782 666 586 794 794 563 356 189 142 39 14 0 0 0 0 0 0 0 0 0 0 0 0 0 0 0 0 0 0 0 0 0 0 0 0 0 0 0 0 0 0
995 992 852 868 854 825 827 490 250 118 48 41 11 0 0 0 0 0 0 0 0 0 0 0 0 0 0 0 0 0 0 0 0 0 0 0 0 0 0 0 0 0 0
922 848 915 862 852 823 659 527 127 37 47 48 22 0 31 155 160 106 0 0 0 0 0 0 0 0 0 0 0 0 0 0 0 0 0 0 0 0 0 0 0 0 0
732 729 714 1007 871 763 355 244 85 30 119 367 391 393 389 508 395 170 75 0 0 0 0 0 0 0 0 0 0 0 0 0 0 0 0 0 0 0 0 0 0 0 0
803 659 715 906 682 251 97 13 0 42 375 550 709 749 791 741 792 550 120 0 0 0 0 0 0 0 0 0 0 0 0 0 0 0 0 0 0 0 0 0 0 0 0
853 550 504 424 259 101 0 0 30 366 587 639 854 984 926 800 786 532 9 8 19 0 3 0 0 0 0 0 0 0 0 0 0 0 0 0 0 0 0 0 0 0 0
334 268 174 73 15 1 8 148 404 542 591 716 824 688 557 406 343 94 46 0 0 0 0 0 0 0 0 0 0 0 0 0 0 0 0 0 0 0 0 0 0 0 0
65 204 138 24 4 79 205 357 398 216 84 104 154 95 63 86 199 121 4 0 0 0 0 0 0 0 0 0 0 0 0 0 0 0 0 0 0 0 0 0 0 0 0
37 269 301 133 89 188 291 160 18 2 5 8 6 8 6 5 17 0 0 0 0 0 0 0 0 0 0 0 0 0 0 0 0 0 0 0 0 0 0 0 0 0 0
179 434 401 165 79 292 252 19 3 0 1 0 0 0 0 0 0 0 0 0 0 0 0 0 0 0 0 0 0 0 0 0 0 0 0 0 0 0 0 0 0 0 0
504 546 421 369 156 0 1 29 11 0 0 0 0 0 0 0 0 0 0 0 0 0 0 0 0 0 0 0 0 0 0 0 0 0 0 0 0 0 0 0 0 0 0
630 560 494 306 13 0 0 0 0 0 0 0 0 0 0 0 0 0 0 0 0 0 0 0 0 0 0 0 0 0 0 0 0 0 1 0 0 0 0 0 0 0 0
526 462 440 116 251 46 58 5 0 0 0 0 0 0 0 0 0 0 0 0 0 0 0 0 0 0 0 0 0 0 0 0 2 6 3 0 1 1 0 0 0 0 0
360 408 378 487 477 167 14 0 0 0 0 0 0 0 0 0 0 0 0 0 0 0 0 0 0 0 0 0 0 0 0 0 0 8 0 0 0 4 0 0 1 2 2
517 628 595 459 228 0 0 0 0 0 0 0 0 0 0 0 0 0 0 0 0 0 0 0 0 0 0 0 0 0 0 0 0 0 0 0 2 0 0 0 2 0 4
589 487 24 0 0 0 0 0 0 0 0 0 0 0 0 0 0 0 0 0 0 0 0 0 0 0 0 0 0 0 0 0 0 0 0 2 4 0 0 0 3 0 3
37 1 0 0 0 0 0 0 0 0 0 0 0 0 0 0 0 0 0 0 0 2 2 0 0 0 0 0 0 0 0 0 0 5 2 1 0 0 4 0 0 0 0
0 0 0 0 0 0 0 0 0 0 0 0 0 0 0 0 0 2 11 11 7 2 0 0 0 0 6 0 0 3 7 6 6 6 6 3 0 0 1 2 3 6 3

GFSSE_con_mlcape_027.txt.gz
CAPE
114 21 49 80 97 93 85 84 72 128 208 307 287 259 208 126 78 55 66 46 13 0 0 0 0 0 0 0 0 0 0 0 0 56 499 600 614 630 277 58 160 486 773
142 45 91 124 91 94 112 118 198 274 302 264 181 111 48 48 38 15 0 0 0 0 0 0 0 0 0 0 0 0 0 0 0 3 297 280 320 449 215 33 156 466 894
250 98 136 175 196 225 263 322 345 344 261 193 120 35 3 0 0 0 0 0 0 0 0 0 0 0 0 0 0 0 0 0 0 50 166 356 235 342 375 160 181 204 460
307 160 189 187 322 362 387 412 412 325 213 156 48 35 0 0 0 0 0 0 0 0 0 0 0 0 0 0 0 0 0 0 0 41 21 72 142 239 121 230 182 50 246
288 243 282 266 325 395 428 458 465 274 214 74 43 8 0 0 0 0 0 0 0 0 0 0 0 0 0 0 0 0 0 0 0 7 30 0 10 114 5 0 0 54 71
468 425 302 342 330 422 448 468 372 206 137 63 0 0 0 0 0 0 0 0 0 0 0 0 0 0 0 0 0 0 0 0 0 0 2 3 3 134 13 0 0 0 114
303 479 363 286 342 411 512 484 310 184 114 67 0 0 0 0 0 0 0 0 0 0 0 0 0 0 0 0 0 0 0 0 0 0 0 0 0 0 0 0 0 0 0
276 360 489 374 436 535 590 443 245 173 137 35 0 0 0 0 0 0 0 0 0 0 0 0 0 0 0 0 0 0 0 0 0 0 0 0 0 0 0 0 0 0 0
60 288 540 506 439 532 518 403 226 146 40 1 0 0 0 0 0 0 0 0 0 0 0 0 0 0 0 0 0 0 0 0 0 0 1 0 0 0 0 0 0 0 0
82 539 595 587 684 695 540 308 147 26 4 0 0 0 0 0 0 0 0 0 0 0 0 0 0 0 0 0 0 0 0 0 0 1 10 0 0 0 0 0 0 0 0
336 724 533 490 670 717 546 213 14 1 0 0 0 0 19 118 113 111 0 0 0 0 0 0 0 0 0 0 0 0 0 0 0 0 2 0 0 0 0 0 0 0 0
693 767 491 548 579 499 261 77 0 0 42 205 182 229 397 358 430 129 19 0 0 0 0 0 0 0 0 0 0 0 0 0 0 0 0 0 0 0 0 0 0 0 0
725 657 649 658 537 261 122 2 0 25 260 465 609 703 618 527 557 431 231 43 61 0 54 14 16 0 0 0 0 0 0 0 0 0 0 0 0 0 0 0 0 0 0
628 529 558 392 268 65 0 0 7 279 438 613 764 805 716 532 687 400 151 42 68 33 19 4 6 0 0 0 0 0 0 0 0 0 0 0 0 0 0 0 0 0 0
289 238 211 139 33 0 0 42 397 443 574 787 805 764 687 519 475 272 203 97 75 28 16 1 10 2 0 0 0 0 0 0 0 0 0 0 0 0 0 0 0 0 0
232 140 104 0 0 33 274 353 404 223 120 141 184 232 253 96 225 116 37 10 25 20 5 0 0 0 0 0 0 0 0 0 0 0 0 0 0 0 0 0 0 0 0
192 190 150 68 262 394 375 84 70 77 83 80 103 95 115 29 27 0 0 3 2 0 0 0 0 0 0 0 0 0 0 0 0 0 0 0 1 0 0 0 0 0 0
327 338 342 241 400 507 109 0 1 1 21 36 56 2 0 0 0 0 0 0 0 0 0 0 0 0 0 0 0 0 0 0 0 0 0 0 3 3 0 0 0 0 0
437 669 461 337 480 50 0 3 0 11 21 0 0 0 0 0 0 0 0 0 0 0 0 0 0 0 0 0 0 0 0 0 0 0 0 0 10 8 8 0 0 0 0
562 775 618 472 163 6 22 0 0 0 0 0 0 0 0 0 0 0 0 0 0 0 0 0 0 0 0 0 0 0 0 0 0 0 0 5 7 0 9 4 0 5 5
916 703 727 403 235 229 134 25 2 0 0 0 0 0 0 0 0 0 0 0 0 0 0 0 0 0 0 0 0 0 0 0 0 0 0 2 0 0 0 6 8 5 3
788 699 713 535 451 450 282 145 63 28 0 0 0 0 0 0 0 0 0 0 0 0 0 0 0 0 0 0 0 0 0 0 0 0 0 0 0 0 7 0 0 2 3
553 588 646 629 702 434 40 3 25 28 0 0 0 0 0 0 0 0 0 0 0 0 0 0 0 0 0 0 0 0 0 0 0 0 0 0 2 1 1 10 6 1 5
615 599 687 516 149 2 0 1 2 3 9 5 1 0 0 0 0 0 0 0 0 0 0 0 0 0 3 1 2 3 0 0 0 0 0 0 0 3 10 6 16 7 1
576 444 216 16 2 0 0 0 0 0 0 0 0 0 0 0 0 0 0 0 0 0 0 2 4 7 13 10 6 4 1 0 2 9 9 9 3 3 4 7 9 9 4
345 0 0 0 0 0 0 0 0 0 0 0 0 0 0 0 0 0 0 0 0 0 3 5 14 26 16 19 23 12 7 12 11 9 11 10 8 0 0 2 9 9 12

GFSSE_con_mlcape_030.txt.gz
CAPE
0 21 216 320 266 218 92 65 91 136 195 227 162 84 63 6 40 11 0 0 0 0 0 0 0 0 0 0 0 0 0 0 0 395 297 294 338 119 23 20 215 427 609
0 36 141 243 231 104 71 117 176 217 227 118 30 2 0 0 0 0 0 0 0 0 0 0 0 0 0 0 0 0 0 0 0 166 186 343 293 275 97 43 38 291 492
9 52 67 99 114 144 199 203 278 233 168 67 31 0 0 0 0 0 0 0 0 0 0 0 0 0 0 0 0 0 0 0 0 64 117 147 58 46 221 161 93 281 500
42 61 97 121 168 241 303 306 307 186 56 53 0 0 0 0 0 0 0 0 0 0 0 0 0 0 0 0 0 0 0 0 0 2 51 67 6 9 0 0 32 98 282
36 102 188 153 201 289 395 353 278 130 47 8 0 0 0 0 0 0 0 0 0 0 0 0 0 0 0 0 0 0 0 0 0 16 0 9 9 61 0 0 0 0 130
77 247 216 171 194 362 377 312 234 110 44 0 0 0 0 0 0 0 0 0 0 0 0 0 0 0 0 0 0 0 0 0 0 0 0 0 0 0 0 0 0 0 0
242 162 141 135 234 404 396 255 176 133 31 0 0 0 0 0 0 0 0 0 0 0 0 0 0 0 0 0 0 0 0 0 0 0 0 0 0 0 0 0 0 0 0
191 91 118 205 338 474 402 269 184 117 6 0 0 0 0 0 0 0 0 0 0 0 0 0 0 0 0 0 0 0 0 0 0 3 0 0 0 0 0 0 0 0 0
45 107 102 308 401 438 293 194 143 55 10 0 0 0 0 0 0 0 0 0 0 0 0 0 0 0 0 0 0 0 0 0 0 0 0 0 0 0 0 0 0 0 0
8 22 144 248 415 324 201 102 43 14 0 0 0 0 0 0 0 0 0 0 0 0 0 0 0 0 0 0 0 0 0 0 0 0 0 0 0 0 0 26 0 0 31
20 41 99 217 456 199 111 35 1 0 0 0 0 0 0 0 0 93 0 0 0 0 0 0 0 0 0 0 0 0 0 0 0 0 0 0 0 0 0 0 27 61 88
29 186 225 429 519 254 25 18 0 0 0 0 0 0 123 359 28 78 0 0 0 0 0 0 0 0 0 0 0 0 0 0 0 0 0 0 0 0 0 0 0 0 0
200 326 445 299 351 101 78 8 3 59 292 290 432 422 484 516 532 127 136 1 0 0 39 0 41 5 0 0 0 0 0 0 0 0 0 0 0 0 0 0 0 0 0
548 497 499 352 202 65 29 0 1 438 443 616 580 613 491 488 420 173 70 78 17 7 26 24 29 4 0 0 0 0 0 0 0 0 0 0 0 0 0 0 0 0 0
436 531 328 231 112 0 5 275 467 552 467 599 646 349 528 366 283 246 61 3 0 3 11 3 0 0 0 0 0 0 0 0 0 0 0 0 0 0 0 0 0 0 0
214 210 175 86 14 109 466 412 364 338 246 167 126 201 361 170 94 21 0 0 0 0 0 0 0 0 0 0 0 0 0 0 0 0 0 0 0 0 0 0 0 0 0
142 118 53 7 81 415 336 192 78 11 16 26 48 69 47 30 3 0 0 0 0 0 0 0 0 0 0 0 0 0 0 0 0 0 0 0 0 0 0 0 0 0 0
144 146 63 169 437 268 51 16 3 0 15 14 6 0 0 0 0 0 0 0 0 0 0 0 0 0 0 0 0 0 0 0 0 0 0 0 0 0 0 0 0 0 0
231 287 299 472 341 131 0 0 0 0 0 0 0 0 0 0 0 0 0 0 0 0 0 0 0 0 0 0 0 0 0 0 0 0 0 0 5 3 0 2 0 0 0
494 406 382 601 340 40 0 12 10 0 0 0 0 0 0 0 0 0 0 0 0 0 0 0 0 0 0 0 0 0 0 0 0 0 0 1 0 0 0 0 0 0 0
790 527 420 444 198 52 22 42 3 0 0 0 0 0 0 0 0 0 0 0 0 0 0 0 0 0 0 0 0 0 0 0 0 0 0 0 0 0 0 0 0 0 0
810 524 411 309 139 235 292 67 14 0 0 0 0 0 0 0 0 0 0 0 0 0 0 0 0 0 0 0 0 0 0 0 0 0 0 0 0 0 0 0 0 0 0
860 615 455 379 279 349 332 76 20 1 0 0 0 0 0 0 0 0 0 0 0 0 0 0 0 0 0 0 0 0 0 0 0 0 0 0 0 0 0 0 0 0 1
743 574 599 552 547 481 267 19 2 0 0 0 0 0 0 0 0 0 0 0 0 0 0 0 0 0 0 0 0 0 0 0 0 0 0 0 0 0 0 0 0 0 0
561 597 786 752 377 34 0 8 0 0 0 0 0 0 0 0 0 0 0 0 0 0 0 0 0 0 0 0 0 0 0 0 0 0 0 0 0 0 0 0 0 0 0
603 731 468 282 1 0 0 0 0 0 0 0 0 0 0 0 0 0 0 0 0 0 0 0 0 7 1 0 0 1 0 0 0 0 0 0 0 0 0 0 0 0 0

GFSSE_con_mlcape_033.txt.gz
CAPE
182 615 630 510 341 177 65 82 121 132 88 5 0 0 0 0 0 0 0 0 0 0 0 0 0 0 0 0 0 0 0 0 127 47 4 262 263 139 47 0 130 287 429
241 587 561 460 284 139 105 144 147 86 10 1 0 0 0 0 0 0 0 0 0 0 0 0 0 0 0 0 0 0 0 0 3 90 2 5 22 28 62 105 191 406 449
90 424 512 358 208 182 245 246 126 37 27 12 0 0 0 0 0 0 0 0 0 0 0 0 0 0 0 0 0 0 0 0 0 0 13 0 0 0 0 0 101 285 312
0 290 416 274 195 299 326 222 103 61 24 6 0 0 0 0 0 0 0 0 0 0 0 0 0 0 0 0 0 0 0 0 4 6 20 0 0 0 0 0 0 99 215
39 286 279 153 168 294 252 153 94 50 12 0 0 0 0 0 0 0 0 0 0 0 0 0 0 0 0 0 0 0 0 0 3 0 0 0 0 0 0 0 0 0 8
103 132 63 95 137 202 201 88 69 33 4 0 0 0 15 18 15 2 0 0 0 0 0 0 0 0 0 0 0 0 0 0 0 0 0 0 0 0 0 0 0 0 0
78 52 82 113 152 219 101 76 54 24 0 0 0 4 13 11 3 0 0 0 0 0 0 0 0 0 0 0 0 0 0 0 0 0 0 0 0 0 0 0 0 0 0
8 40 109 148 251 155 127 77 24 2 0 0 0 0 4 0 0 0 0 0 0 0 0 0 0 0 0 0 0 0 0 0 0 0 0 0 0 0 0 0 0 0 0
47 48 128 152 260 125 106 32 1 0 0 0 0 0 0 0 0 0 0 0 0 0 0 0 0 0 0 0 0 0 0 0 0 0 0 0 0 0 0 0 0 0 74
74 77 82 126 201 136 75 6 2 0 0 0 0 0 0 0 0 0 0 0 0 0 0 0 0 0 0 0 0 0 0 0 0 0 0 0 0 0 0 0 0 66 80
0 13 80 175 170 55 19 7 0 0 0 0 0 0 0 0 0 0 0 0 0 0 0 0 0 0 0 0 0 0 0 0 0 0 0 0 0 0 0 0 0 0 1
0 0 26 111 92 17 5 0 0 0 0 0 0 0 0 0 0 0 0 0 0 0 0 0 0 0 0 0 0 0 0 0 0 0 0 0 0 0 0 0 0 0 0
1 0 0 87 42 0 0 0 0 0 0 0 0 12 115 124 3 0 0 0 0 0 0 0 0 0 0 0 0 0 0 0 0 0 0 0 0 0 0 0 0 0 0
13 51 60 256 17 0 0 0 2 11 39 255 421 399 230 181 5 0 0 5 0 0 0 0 0 0 0 0 0 0 0 0 0 0 0 0 0 0 0 0 0 0 0
55 134 215 219 16 5 1 18 77 324 322 363 210 182 112 66 0 0 0 0 0 0 0 0 0 0 0 0 0 0 0 0 0 0 0 0 0 0 0 0 0 0 0
256 267 128 105 9 39 180 267 293 181 60 19 6 17 13 9 0 0 0 0 0 0 0 0 0 0 0 0 0 0 0 0 0 0 0 0 0 0 0 0 0 0 0
259 105 44 0 119 238 143 86 6 0 0 0 0 0 0 0 0 0 0 0 0 0 0 0 0 0 0 0 0 0 0 0 0 0 0 0 0 0 0 0 0 0 0
98 35 11 73 229 126 47 0 0 0 0 0 0 0 0 0 0 0 0 0 0 0 0 0 0 0 0 0 0 0 0 0 0 0 0 0 0 0 0 0 0 0 0
28 0 2 187 146 52 0 0 0 0 0 0 0 0 0 0 0 0 0 0 0 0 0 0 0 0 0 0 0 0 0 0 0 0 0 0 0 0 0 2 0 0 0
21 0 208 257 99 16 0 0 0 0 0 0 0 0 0 0 0 0 0 0 0 0 0 0 0 0 0 0 0 0 0 0 0 0 0 0 0 0 0 0 0 0 0
117 180 324 251 68 0 0 0 0 0 0 0 0 0 0 0 0 0 0 0 0 0 0 0 0 0 0 0 0 0 0 0 0 0 0 0 0 0 0 0 0 0 0
244 295 333 285 94 4 1 27 0 0 0 0 0 0 0 0 0 0 0 0 0 0 0 0 0 0 0 0 0 0 0 0 0 0 0 0 0 0 0 0 0 0 0
324 339 313 294 184 85 23 99 0 0 0 0 0 0 0 0 0 0 0 0 0 0 0 0 0 0 0 0 0 0 0 0 0 0 0 0 0 0 0 0 0 0 0
418 302 314 239 146 82 151 100 0 0 0 0 0 0 0 0 0 0 0 0 0 0 0 0 0 0 0 0 0 0 0 0 0 0 0 0 0 0 0 0 0 0 0
589 395 371 301 230 181 217 20 0 0 0 0 0 0 0 0 0 0 0 0 0 0 0 0 0 0 0 0 0 0 0 0 0 0 0 0 0 0 0 0 0 0 0
521 409 438 376 376 274 42 2 0 0 0 0 0 0 0 0 0 0 0 0 0 0 0 0 0 0 0 0 0 0 0 0 0 0 0 0 0 0 0 0 0 0 0